Location: Go�ngahuizen
(53.0821°N, 5.8849°E)
Time: 00:17:28
(UTC+00:00)

Cosmos 1459 Rocket - Pass Details

Date: 09 April 2020
Orbit: 936 x 1001 km, 83.0° (Epoch: 04 June)

Event Time Altitude Azimuth Distance (km) Brightness Sun altitude
Rises 23:27:04 0° 347° (NNW) 3,737 8.2 -28.8°
Reaches altitude 10° 23:29:39 10° 343° (NNW) 2,779 7.3 -28.9°
Maximum altitude 23:35:50 55° 268° (W) 1,184 4.3 -28.9°
Enters shadow 23:36:07 54° 258° (WSW) 1,189 4.3 -28.9°
